Location: Newark
(49.8348°N, 24.0280°E)
Time: 02:36:06
(UTC+00:00)

S-56A Canister/Altair - Pass Details

Date: 02 February 2020
Orbit: 633 x 2500 km, 38.9° (Epoch: 26 February)

Event Time Altitude Azimuth Distance (km) Brightness Sun altitude
Rises 20:29:52 0° 265° (W) 3,895 11.6 -48.1°
Enters shadow 20:31:54 - 258° (WSW) 3,220 11.0 -48.4°
Reaches altitude 10° 20:33:58 10° 246° (WSW) 2,603 - -48.6°
Maximum altitude 20:37:25 16° 210° (SSW) 1,976 - -49.0°
Drops below altitude 10° 20:40:24 10° 173° (S) 2,183 - -49.4°
Sets 20:43:23 0° 150° (SSE) 2,972 - -49.7°
